Temperature
12 12 12 12 12 12 12 12 12 12 12 12 12 11 11 11 11 11 11 11 11 11 11 11 11 11 10 10 10 10 10 10 10 10 10 10 10 10 10 10 9 9 9
11 11 11 12 12 12 12 12 12 11 11 11 11 11 11 11 11 11 11 11 11 11 11 11 11 11 10 10 10 10 10 10 10 10 10 10 10 10 10 9 9 9 9
11 11 11 11 11 11 11 11 11 11 11 11 11 11 11 11 11 11 11 11 11 11 11 11 11 10 10 10 10 10 10 10 10 10 10 9 9 9 9 9 9 8 8
10 10 11 11 11 11 11 11 10 10 10 10 10 10 10 10 10 10 10 10 10 10 10 10 10 10 10 10 10 10 10 10 9 9 9 9 9 9 9 8 8 8 8
10 10 10 10 10 10 10 10 10 10 10 10 10 10 10 10 10 10 10 10 10 10 10 10 10 10 10 10 10 9 9 9 9 9 9 9 8 8 8 8 8 8 8
10 10 10 10 10 10 10 10 10 9 9 9 9 9 9 9 10 10 10 10 10 10 10 10 10 10 10 9 9 9 9 9 9 9 8 8 8 8 8 8 7 7 7
9 9 9 9 9 9 9 9 9 9 9 9 9 9 9 9 9 9 9 9 10 10 9 9 9 9 9 9 9 9 9 8 8 8 8 8 8 8 7 7 7 7 7
9 9 9 9 9 9 9 9 9 9 9 8 8 8 7 8 9 9 9 9 9 9 9 9 9 9 9 9 9 9 9 8 8 8 8 8 8 7 7 7 7 7 7
8 8 8 8 8 8 8 8 8 8 8 8 8 8 7 8 7 8 9 9 9 9 9 9 9 9 9 8 8 8 8 8 8 8 8 7 7 7 7 7 7 7 7
7 8 8 8 8 8 8 8 8 8 8 8 7 8 7 7 7 7 8 8 8 8 8 8 8 8 8 8 8 8 8 8 8 7 7 7 7 7 7 7 6 6 6
7 7 7 7 7 7 8 8 8 8 7 7 7 7 7 7 7 7 7 7 7 8 8 8 8 8 8 8 8 8 8 7 7 7 7 7 7 7 6 6 6 6 6
6 6 6 7 7 7 7 7 7 7 7 7 7 7 7 7 7 7 6 6 7 7 7 8 8 8 8 7 7 7 7 7 7 7 7 7 6 6 6 6 6 5 6
6 6 6 6 6 6 7 7 7 7 7 7 7 7 7 7 7 7 6 6 6 6 7 7 7 7 7 7 7 7 7 7 7 6 6 6 6 6 6 6 5 5 5
5 5 5 6 6 6 6 6 6 6 6 6 6 6 6 6 6 6 6 6 5 5 6 6 7 7 7 6 6 6 6 6 6 6 6 6 6 6 6 5 5 5 5
4 5 5 5 5 5 6 6 6 6 6 6 6 6 6 6 6 6 6 6 6 5 5 6 6 6 6 6 6 6 6 6 6 6 6 6 6 6 5 5 5 5 4
4 4 5 5 5 5 5 5 5 5 6 6 6 6 6 5 6 6 6 6 5 5 5 5 6 6 6 6 6 5 6 6 6 5 5 5 5 5 5 5 5 4 4
4 4 4 4 4 4 5 5 5 5 5 5 5 5 5 5 5 5 5 5 5 5 5 5 5 5 5 5 5 5 5 5 5 5 5 5 5 5 5 4 4 4 4
3 3 3 3 4 4 4 4 5 5 5 5 5 5 5 5 5 5 5 5 5 5 4 4 5 5 5 5 5 5 5 5 5 4 5 5 4 4 4 4 4 4 4
3 3 3 3 3 3 4 4 4 4 4 4 4 4 4 4 4 5 5 4 4 4 4 4 4 4 4 5 5 4 4 4 4 4 4 4 4 4 4 4 3 3 3
2 3 3 3 3 3 3 3 3 4 4 4 4 4 4 4 4 4 4 4 4 4 4 4 4 4 4 4 4 4 4 4 4 4 4 4 4 4 4 3 3 3 3
2 2 2 2 2 2 3 3 3 3 3 4 4 4 4 4 4 4 4 4 4 3 3 3 3 3 3 3 4 4 3 3 3 3 3 4 3 3 3 3 3 3 2
2 1 2 2 2 2 2 2 3 3 3 3 3 3 3 3 3 3 3 3 3 3 3 3 3 3 3 3 3 3 3 3 2 3 3 3 3 3 3 3 2 2 2
1 1 1 1 1 1 2 2 2 2 2 2 3 3 3 3 3 3 3 3 3 3 3 3 3 3 3 3 3 3 3 3 2 2 2 2 3 3 3 2 2 2 2
0 0 1 1 1 1 1 1 2 2 2 2 2 2 2 2 2 2 2 2 2 2 2 2 3 3 3 3 3 3 2 2 2 2 2 2 2 2 2 2 2 2 2
-0 -0 0 0 0 1 1 1 1 1 1 1 1 1 1 2 2 2 2 2 2 2 2 2 2 2 2 2 2 2 2 2 1 1 1 1 1 1 2 2 2 1 1
-1 -0 -0 -0 0 0 0 0 0 1 1 1 1 1 1 1 1 1 1 1 1 1 2 2 2 2 2 2 2 2 1 1 1 1 1 1 1 1 1 1 1 1 1
Wind_Speed
4 4 4 4 5 5 5 4 4 4 4 4 5 5 5 5 5 5 4 4 4 5 5 4 5 5 5 5 4 4 4 4 4 3 3 2 3 3 4 5 6 6 7
3 4 4 4 4 5 4 4 4 4 4 3 4 5 5 5 5 5 5 5 5 5 6 6 5 5 5 5 5 4 4 5 4 3 3 3 3 4 5 5 6 7 7
4 5 4 4 5 5 5 4 4 4 3 4 4 4 4 5 5 5 5 5 5 5 5 6 5 6 6 6 5 5 5 5 5 4 3 3 4 5 5 6 7 7 8
4 4 4 4 5 5 4 4 4 3 3 3 3 3 4 4 6 5 5 5 5 5 5 5 6 6 6 6 6 6 5 5 5 5 4 4 4 5 6 7 7 7 8
4 4 4 4 4 4 4 4 4 4 4 3 3 3 4 4 5 5 5 5 5 5 5 5 5 5 6 6 6 6 6 6 5 5 5 4 4 5 6 6 7 7 8
4 4 3 5 5 4 5 5 5 4 3 3 3 2 3 5 5 5 5 5 5 6 6 6 5 5 5 6 6 6 5 5 5 5 5 5 5 5 6 6 7 7 8
4 4 3 4 4 5 6 6 4 5 4 3 2 2 3 5 6 6 5 5 6 6 6 6 5 5 4 5 5 6 6 6 6 6 6 6 6 6 6 6 7 8 8
4 4 4 4 5 5 6 6 5 4 4 4 3 2 3 3 5 6 5 5 6 5 6 6 6 5 5 4 4 5 6 6 7 6 7 6 6 6 6 7 7 8 9
4 4 5 5 5 5 6 7 6 7 5 5 5 3 3 3 2 4 6 6 6 5 6 6 6 6 6 5 5 5 5 6 7 7 7 6 6 6 7 7 8 9 9
4 4 5 5 5 5 6 7 6 6 7 6 5 4 4 3 3 2 3 5 6 6 7 6 6 6 6 5 5 5 5 6 7 7 7 7 6 6 7 8 8 9 9
3 4 5 5 6 6 6 6 6 7 6 6 5 4 4 4 5 4 4 4 5 5 6 6 6 6 6 6 5 5 6 6 7 7 7 7 7 7 8 8 9 9 9
3 4 5 5 6 6 6 7 7 8 7 7 6 6 5 4 5 5 5 5 5 4 5 5 6 5 5 6 6 5 6 6 6 7 7 7 7 7 8 9 9 9 9
3 4 5 5 5 6 6 6 7 7 7 8 7 6 6 6 4 5 4 4 4 3 4 5 5 5 5 5 5 5 6 6 6 6 6 6 7 8 8 9 9 9 9
4 5 4 5 5 5 6 6 6 7 7 7 7 6 5 5 5 5 4 4 4 4 4 4 3 5 5 5 5 5 6 7 6 6 6 7 7 7 8 7 7 8 9
3 4 4 4 4 5 6 6 6 7 6 6 7 7 6 5 5 5 5 5 5 4 4 3 3 4 4 4 4 6 6 6 6 7 7 7 7 7 6 7 7 7 8
3 4 4 4 4 4 5 5 5 6 6 6 5 6 6 5 5 5 5 5 6 5 5 3 2 3 4 4 5 6 6 6 7 7 7 7 6 6 6 5 6 7 8
3 4 4 4 4 5 5 5 6 6 6 6 6 6 7 7 6 5 5 5 5 5 6 4 3 3 4 4 3 4 5 5 6 6 7 7 6 6 5 5 6 7 8
3 4 4 4 4 5 5 5 5 6 6 6 7 6 7 6 7 6 5 6 5 5 6 6 3 3 4 4 4 4 3 4 4 5 6 6 6 5 5 6 6 7 7
3 3 3 4 4 5 5 5 5 5 5 6 6 6 7 7 7 6 6 5 5 4 5 4 3 2 2 3 3 3 3 3 3 4 5 5 6 6 6 6 6 6 7
3 3 4 4 4 4 4 4 4 4 5 5 5 6 6 7 7 7 6 6 5 4 4 4 4 3 2 3 2 2 2 2 3 3 4 4 5 5 5 5 6 6 6
3 3 3 4 4 3 3 4 4 4 4 4 5 5 6 6 7 6 5 5 5 5 4 4 4 3 3 3 3 2 3 2 3 2 3 3 3 4 4 5 5 5 6
3 3 3 3 3 3 4 4 4 4 4 5 5 5 5 5 6 7 7 7 7 6 6 5 4 5 5 4 3 3 2 2 3 1 2 4 3 4 4 3 4 5 6
3 3 3 3 3 3 4 4 4 4 4 4 4 4 3 4 5 5 6 6 6 7 7 6 6 6 5 4 4 4 4 3 4 3 2 3 3 4 3 3 4 5 6
3 3 3 3 3 3 3 3 3 3 3 3 3 4 4 4 4 5 5 5 5 4 4 5 5 6 5 5 5 4 4 3 3 3 2 2 3 4 4 4 3 4 6
3 3 3 3 3 4 3 3 3 3 2 3 3 4 4 4 4 5 5 4 3 2 1 2 3 4 4 4 4 3 2 2 2 2 2 2 2 3 4 3 2 4 6
3 3 3 3 3 4 4 4 3 2 2 2 3 3 3 4 4 4 5 4 4 3 1 1 1 2 3 4 5 4 4 4 2 2 2 2 1 1 2 2 3 3 4
Wind_Direction
193 196 190 184 188 190 188 184 185 183 184 189 196 202 202 206 209 207 195 182 215 228 231 236 241 241 241 239 242 249 260 262 260 257 263 280 294 305 310 313 315 316 319
198 195 196 187 187 191 191 192 191 191 191 191 201 209 207 207 211 214 215 200 206 227 237 240 247 247 244 242 244 252 260 262 260 261 269 276 288 296 301 305 308 311 315
201 201 202 195 189 185 185 185 191 194 195 201 207 217 219 214 210 215 220 221 216 216 232 239 241 247 245 244 243 249 260 263 268 264 277 280 286 296 297 299 302 307 310
204 206 198 200 189 185 182 185 196 197 200 208 213 223 228 226 221 217 218 220 224 225 222 232 241 244 245 242 244 246 256 265 273 266 270 275 286 293 293 296 299 304 306
203 208 202 198 191 192 193 190 197 199 200 209 219 229 235 233 229 220 219 221 223 225 225 220 229 239 248 245 245 247 253 259 269 270 268 272 283 292 296 298 301 304 308
202 203 205 201 198 199 198 194 191 191 199 207 215 240 250 241 231 226 224 223 223 224 226 223 221 225 241 249 248 254 258 260 266 277 271 269 278 286 292 296 300 302 306
205 197 208 209 211 208 202 196 189 188 194 195 221 248 261 250 238 230 225 227 226 226 227 227 228 230 234 240 243 251 260 265 269 273 281 270 274 282 289 294 295 298 304
209 203 205 212 211 207 204 200 196 199 203 200 216 233 248 244 236 230 225 225 230 229 229 230 229 232 235 239 238 243 257 266 272 277 281 270 272 280 285 289 292 297 302
211 212 210 217 212 211 207 208 208 206 204 206 212 218 232 240 272 224 226 226 227 230 229 227 230 231 233 238 242 236 250 263 274 279 284 277 279 282 287 289 294 296 300
219 215 215 223 220 219 216 213 215 218 207 208 211 226 240 252 246 257 232 226 228 234 232 229 230 229 229 235 244 247 246 259 272 280 283 279 279 284 288 292 295 299 301
224 221 220 223 225 223 221 219 220 221 217 218 219 220 227 233 238 243 252 247 236 233 237 233 231 229 228 231 238 241 244 255 266 280 282 281 279 286 287 290 293 297 301
244 228 224 227 229 229 225 223 223 224 223 221 223 221 220 219 223 231 240 248 256 248 239 237 234 229 227 228 232 237 246 253 262 277 276 281 281 284 285 288 291 296 300
256 248 235 233 234 233 231 227 226 226 225 221 221 224 226 230 230 232 235 244 259 271 250 239 232 228 225 230 231 235 246 251 258 270 278 280 279 283 284 287 290 295 299
252 251 246 244 242 241 235 231 229 230 229 223 223 227 229 229 227 229 228 230 246 260 253 242 231 223 220 233 233 235 247 240 247 263 273 273 275 280 284 289 294 295 296
254 252 254 254 257 250 240 234 233 231 231 227 222 221 227 230 229 233 229 225 225 237 250 243 234 223 225 238 225 241 251 236 246 256 263 265 268 274 279 290 296 301 304
263 259 259 260 257 255 251 242 238 234 233 233 228 223 224 226 225 225 224 229 235 236 241 248 249 254 231 239 234 244 251 240 244 251 260 262 264 271 278 283 291 303 307
265 260 257 254 256 255 254 251 244 237 235 236 230 225 226 225 225 223 223 228 232 233 241 257 269 259 238 232 239 249 250 242 242 247 258 260 258 262 271 280 289 299 305
264 260 259 256 254 254 251 251 254 245 237 235 230 227 227 225 228 226 223 227 229 232 237 248 254 244 252 234 235 253 258 255 252 249 259 261 256 258 270 281 288 297 304
273 269 264 261 261 262 259 253 253 249 245 240 236 229 229 226 230 228 227 226 230 234 234 233 246 246 260 245 229 249 256 264 267 259 263 254 253 262 272 278 284 292 298
272 270 269 266 266 264 260 259 259 252 247 245 242 237 234 230 230 229 226 225 227 226 218 219 230 236 244 259 233 235 260 273 276 270 269 261 261 262 265 273 281 290 296
286 276 272 274 275 268 258 265 261 255 250 251 246 239 235 237 238 237 228 218 215 218 216 217 221 230 240 245 236 234 253 291 286 259 280 269 266 265 260 256 265 283 297
296 295 279 276 280 277 286 289 278 263 250 245 245 241 235 235 237 235 233 225 221 219 218 220 227 228 234 246 241 238 241 272 286 254 281 279 272 274 277 271 285 290 298
304 300 299 291 287 287 298 301 290 271 259 252 250 250 241 234 233 234 230 229 236 239 229 226 230 232 231 229 230 235 238 248 262 271 274 276 279 279 286 277 290 294 300
307 301 301 307 301 297 310 318 304 270 266 268 261 255 251 237 227 229 225 227 235 235 231 232 238 242 239 234 227 232 247 261 289 270 249 261 286 296 305 286 282 295 306
309 309 305 305 310 314 323 327 315 273 271 274 267 256 257 248 224 211 211 215 228 245 269 245 259 260 257 237 223 214 219 236 272 280 249 236 280 307 298 287 279 294 303
309 313 321 322 322 324 334 331 320 280 276 278 278 267 261 260 218 201 205 209 221 233 230 214 240 251 253 231 221 219 214 222 254 258 220 219 246 317 300 291 304 303 303
Height
1502 1503 1504 1505 1506 1507 1508 1508 1509 1510 1511 1511 1512 1513 1513 1514 1515 1515 1515 1515 1515 1516 1516 1516 1516 1516 1516 1516 1515 1515 1515 1515 1514 1514 1513 1513 1512 1511 1510 1509 1508 1506 1505
1499 1500 1500 1501 1503 1504 1504 1505 1507 1507 1508 1509 1509 1510 1510 1511 1511 1512 1512 1512 1513 1513 1513 1513 1513 1513 1513 1513 1513 1513 1513 1512 1512 1512 1511 1510 1510 1508 1507 1506 1505 1504 1502
1496 1496 1497 1498 1499 1501 1501 1502 1503 1504 1505 1506 1506 1507 1507 1507 1508 1509 1509 1510 1510 1510 1510 1510 1510 1511 1511 1511 1511 1510 1510 1510 1509 1509 1508 1508 1507 1506 1505 1504 1502 1501 1499
1492 1493 1494 1494 1495 1497 1498 1499 1500 1500 1501 1502 1503 1504 1504 1504 1505 1505 1506 1506 1506 1507 1507 1507 1508 1508 1508 1508 1508 1508 1507 1507 1507 1506 1506 1505 1504 1503 1502 1501 1500 1498 1497
1488 1489 1490 1490 1492 1493 1494 1495 1496 1497 1498 1499 1500 1500 1501 1501 1501 1502 1502 1503 1503 1503 1504 1504 1504 1504 1505 1505 1505 1504 1504 1504 1503 1503 1502 1502 1501 1500 1499 1498 1497 1495 1494
1485 1486 1487 1487 1488 1489 1490 1491 1492 1494 1495 1496 1496 1497 1497 1497 1497 1498 1498 1499 1500 1500 1501 1501 1501 1501 1501 1501 1501 1501 1501 1501 1500 1500 1499 1498 1498 1497 1496 1495 1494 1492 1491
1482 1483 1484 1484 1485 1486 1487 1488 1488 1489 1491 1493 1493 1493 1494 1494 1493 1493 1494 1495 1496 1497 1497 1497 1497 1497 1497 1497 1497 1497 1497 1497 1497 1496 1496 1495 1494 1494 1493 1492 1490 1489 1488
1479 1479 1480 1481 1482 1483 1483 1484 1485 1486 1487 1488 1490 1490 1491 1492 1490 1489 1490 1491 1492 1493 1493 1493 1493 1493 1494 1494 1493 1493 1493 1493 1493 1493 1492 1491 1491 1490 1489 1488 1487 1486 1484
1475 1476 1477 1478 1478 1479 1480 1481 1481 1482 1483 1484 1486 1487 1488 1487 1487 1486 1486 1487 1488 1488 1489 1489 1489 1489 1490 1490 1490 1490 1490 1489 1489 1489 1489 1488 1487 1486 1486 1485 1484 1482 1480
1472 1473 1473 1474 1475 1476 1476 1477 1478 1479 1480 1480 1481 1482 1484 1484 1485 1483 1483 1483 1484 1484 1485 1485 1485 1486 1486 1486 1486 1486 1486 1486 1485 1485 1485 1484 1483 1482 1482 1481 1480 1478 1476
1468 1469 1470 1470 1471 1472 1473 1473 1474 1475 1476 1476 1477 1478 1479 1480 1480 1480 1479 1480 1480 1480 1481 1481 1481 1481 1481 1481 1482 1481 1482 1482 1481 1481 1481 1480 1479 1478 1478 1477 1475 1474 1472
1464 1465 1466 1466 1467 1468 1468 1469 1470 1471 1471 1472 1473 1473 1474 1474 1475 1475 1475 1475 1476 1476 1476 1476 1477 1477 1477 1477 1477 1477 1478 1478 1477 1477 1477 1476 1475 1474 1474 1472 1471 1470 1468
1460 1461 1462 1462 1463 1463 1464 1465 1466 1466 1467 1467 1468 1469 1469 1470 1471 1471 1471 1471 1471 1471 1472 1472 1472 1473 1473 1473 1473 1473 1474 1473 1473 1473 1473 1472 1471 1470 1470 1468 1467 1465 1464
1456 1457 1457 1458 1458 1459 1460 1461 1462 1462 1463 1463 1463 1464 1465 1465 1466 1467 1467 1467 1468 1468 1467 1468 1468 1469 1469 1469 1469 1469 1469 1469 1469 1469 1469 1468 1467 1466 1466 1464 1462 1461 1459
1453 1454 1454 1454 1454 1455 1456 1457 1457 1458 1458 1458 1458 1459 1460 1461 1461 1462 1463 1464 1465 1464 1463 1463 1464 1464 1464 1465 1465 1465 1465 1465 1466 1465 1465 1464 1464 1462 1461 1460 1459 1457 1455
1450 1450 1450 1450 1450 1450 1451 1452 1452 1453 1453 1453 1453 1454 1455 1456 1457 1457 1458 1459 1460 1460 1459 1458 1459 1459 1460 1461 1461 1461 1461 1461 1461 1461 1460 1460 1459 1459 1458 1456 1455 1453 1452
1446 1446 1446 1446 1446 1447 1447 1447 1447 1448 1448 1448 1448 1449 1450 1452 1453 1453 1453 1454 1455 1455 1454 1454 1455 1455 1456 1456 1456 1457 1457 1457 1457 1457 1457 1456 1455 1455 1454 1453 1451 1450 1448
1444 1444 1443 1443 1443 1443 1443 1443 1443 1444 1444 1444 1444 1445 1445 1447 1448 1448 1449 1450 1450 1450 1451 1449 1450 1451 1451 1452 1452 1453 1453 1453 1453 1453 1453 1453 1452 1451 1450 1449 1448 1446 1444
1440 1440 1440 1439 1439 1439 1439 1439 1439 1439 1439 1439 1440 1440 1441 1442 1443 1444 1444 1445 1445 1446 1446 1446 1446 1447 1447 1448 1448 1449 1449 1449 1449 1450 1450 1449 1448 1447 1446 1445 1444 1442 1441
1437 1437 1437 1436 1436 1436 1435 1435 1435 1435 1435 1435 1435 1436 1437 1437 1438 1439 1440 1440 1441 1441 1442 1442 1442 1443 1443 1444 1444 1444 1444 1445 1445 1446 1446 1446 1445 1444 1443 1442 1441 1439 1437
1434 1434 1433 1433 1433 1432 1432 1432 1431 1431 1431 1431 1431 1432 1432 1433 1433 1435 1435 1436 1437 1437 1438 1438 1438 1439 1439 1440 1440 1440 1440 1441 1441 1442 1442 1442 1441 1440 1439 1438 1437 1436 1434
1431 1431 1430 1430 1429 1429 1428 1428 1428 1427 1427 1427 1427 1428 1428 1429 1429 1430 1431 1432 1433 1433 1434 1434 1434 1434 1435 1436 1437 1436 1437 1437 1437 1438 1438 1438 1438 1437 1436 1435 1434 1432 1430
1428 1428 1427 1427 1426 1426 1425 1425 1425 1424 1424 1424 1423 1424 1424 1425 1426 1426 1427 1428 1429 1430 1430 1431 1431 1431 1432 1432 1433 1433 1434 1434 1434 1434 1434 1433 1434 1433 1433 1432 1430 1429 1427
1426 1425 1425 1424 1424 1423 1422 1422 1422 1421 1421 1420 1420 1420 1421 1421 1422 1423 1424 1424 1425 1426 1426 1427 1427 1428 1429 1430 1430 1431 1431 1431 1432 1432 1431 1430 1430 1430 1430 1429 1428 1426 1424
1424 1423 1423 1422 1421 1420 1419 1419 1418 1418 1417 1417 1417 1417 1417 1417 1418 1419 1421 1421 1421 1422 1423 1424 1424 1425 1426 1427 1427 1427 1427 1428 1427 1428 1428 1428 1427 1427 1426 1426 1425 1424 1422
1422 1421 1420 1419 1418 1417 1416 1416 1416 1415 1415 1415 1414 1414 1415 1415 1415 1416 1417 1418 1418 1419 1419 1420 1421 1422 1423 1423 1424 1424 1424 1425 1424 1425 1425 1425 1424 1424 1423 1423 1422 1421 1419